Deer Park, WA
on Sunday, January 13, 2013

Sunday
Previous Day Next Day
Daily Summary
 ActualAverageRecord
Temperature
Mean Temperature °F 27°F  
Max Temperature 24°F 33°F 47°F (2014)
Min Temperature 7°F 21°F -8°F (2007)
Degree Days
Heating Degree Days 49 38  
Month to date heating degree days 552 506  
Since 1 July heating degree days 3345 3733  
Cooling Degree Days 0 0  
Month to date cooling degree days 0 0  
Year to date cooling degree days 0 0  
Moisture
Dew Point 10°F   
Average Humidity 80    
Maximum Humidity 92    
Minimum Humidity 68    
Precipitation
Precipitation T in 0.10 in 1.00 in (2006)
Month to date precipitation 1.11 1.32  
Year to date precipitation 1.11 1.32  
Wind
Wind Speed 2 mph   
Max Wind Speed 7 mph   
Max Gust Speed 7 mph   
Visibility 9 miles   
Events Snow   

Key: T is trace of precipitation, MM is missing value
Source: NWS Daily Summary
Time(PST)TemperatureDew PointHumidity Pressure Visibility Wind DirectionWind SpeedGust SpeedPrecipitationEvents Conditions
12:53 AM 9.0°F 7.0°F 92% 30.40 in 7.0 miles Calm Calm - N/A   Overcast
1:53 AM 10.9°F 9.0°F 92% 30.41 in 3.0 miles Calm Calm - 0.00 in Snow Light Snow
2:01 AM 10.4°F 8.6°F 92% 30.29 in 2.5 miles Calm Calm - 0.00 in Snow Light Snow
2:15 AM 10.4°F 8.6°F 92% 30.30 in 4.0 miles Calm Calm - 0.00 in Snow Light Snow
2:53 AM 10.0°F 7.0°F 87% 30.42 in 9.0 miles Calm Calm - 0.00 in   Overcast
3:53 AM 8.1°F 5.0°F 87% 30.43 in 10.0 miles NW 3.5 mph - N/A   Overcast
4:53 AM 10.0°F 7.0°F 87% 30.44 in 8.0 miles Calm Calm - N/A   Overcast
5:53 AM 12.0°F 9.0°F 88% 30.45 in 10.0 miles Calm Calm - N/A   Overcast
6:53 AM 10.9°F 9.0°F 92% 30.50 in 10.0 miles WNW 3.5 mph - N/A   Overcast
7:53 AM 12.0°F 10.0°F 92% 30.52 in 10.0 miles WNW 4.6 mph - N/A   Overcast
8:53 AM 12.9°F 10.9°F 92% 30.52 in 10.0 miles NNW 3.5 mph - N/A   Overcast
9:42 AM 15.8°F 12.2°F 86% 30.37 in 10.0 miles Calm Calm - N/A   Overcast
9:53 AM 15.1°F 12.0°F 88% 30.51 in 10.0 miles NNW 3.5 mph - N/A   Overcast
10:08 AM 15.8°F 12.2°F 86% 30.37 in 10.0 miles North 3.5 mph - N/A   Overcast
10:31 AM 15.8°F 10.4°F 79% 30.37 in 10.0 miles North 5.8 mph - N/A   Scattered Clouds
10:53 AM 18.0°F 12.0°F 78% 30.50 in 10.0 miles North 5.8 mph - N/A   Clear
11:53 AM 21.0°F 12.0°F 68% 30.48 in 10.0 miles Calm Calm - N/A   Clear
12:53 PM 19.0°F 14.0°F 81% 30.47 in 10.0 miles SSW 3.5 mph - N/A   Clear
1:53 PM 19.9°F 12.0°F 71% 30.46 in 10.0 miles Calm Calm - N/A   Clear
2:53 PM 16.0°F 10.0°F 77% 30.47 in 10.0 miles South 4.6 mph - N/A   Clear
3:53 PM 14.0°F 9.0°F 80% 30.48 in 10.0 miles South 4.6 mph - N/A   Clear
4:53 PM 15.1°F 10.9°F 84% 30.48 in 10.0 miles South 3.5 mph - N/A   Mostly Cloudy
5:53 PM 14.0°F 10.0°F 84% 30.48 in 10.0 miles Calm Calm - N/A   Scattered Clouds
6:53 PM 15.1°F 10.0°F 80% 30.48 in 10.0 miles Calm Calm - N/A   Mostly Cloudy
7:53 PM 14.0°F 10.9°F 88% 30.49 in 10.0 miles Calm Calm - N/A   Overcast
8:53 PM 16.0°F 12.9°F 88% 30.49 in 10.0 miles Calm Calm - N/A   Overcast
9:53 PM 15.1°F 12.0°F 88% 30.49 in 8.0 miles Calm Calm - N/A   Overcast
10:53 PM 15.1°F 12.0°F 88% 30.48 in 10.0 miles Calm Calm - N/A   Overcast
11:53 PM 16.0°F 12.0°F 84% 30.47 in 10.0 miles Calm Calm - N/A   Overcast
Moon Phase
Jan. 13 Jan. 18 Jan. 26 Feb. 03 Feb. 10
Sunrise:07:35 AM (PST) Moon Rise:08:23 AM (PST)1/13
Sunset:04:21 PM (PST) Moon Set:07:21 PM (PST)1/13

Copyright © 2014 The Weather Underground, Inc.